Location: Little Elm
(33.1626°N, 96.9375°W)
Time: 06:16:32
(UTC+00:00)

H-2A R/B - Pass Details

Date: 05 July 2022
Orbit: 491 x 536 km, 97.3° (Epoch: 01 April)

Event Time Altitude Azimuth Distance (km) Brightness Sun altitude
Rises 10:28:47 0° 26° (NNE) 2,617 7.5 -10.6°
Reaches altitude 10° 10:31:09 10° 40° (NE) 1,735 6.8 -10.2°
Maximum altitude 10:34:16 25° 97° (E) 1,070 4.9 -9.7°
Drops below altitude 10° 10:37:25 10° 153° (SSE) 1,742 5.3 -9.2°
Sets 10:39:47 0° 167° (SSE) 2,631 6.1 -8.8°
